CAPE
498 148 570 1147 391 401 92 44 0 0 0 0 0 0 0 0 0 7 19 15 17 12 18 16 16 19 21 20 17 18 33 22 28 26 20 18 20 17 18 21 23 25 28
102 19 293 220 9 21 12 0 0 0 0 0 0 0 0 0 0 4 2 0 6 6 3 4 8 12 16 20 20 19 22 30 30 14 27 24 25 27 28 28 25 29 34
0 0 0 153 218 30 0 0 0 0 0 0 0 0 0 0 0 0 0 1 0 0 0 0 2 6 13 18 21 24 22 31 24 31 25 31 28 27 33 28 35 37 36
0 0 3 245 327 40 2 0 0 0 0 0 0 0 0 0 0 0 0 0 0 0 0 0 0 2 6 12 17 21 26 28 34 32 36 29 35 32 39 40 32 37 34
0 0 0 55 138 97 15 1 0 0 0 0 0 0 0 0 0 0 0 0 0 0 0 0 0 0 1 7 15 23 28 27 41 40 37 32 36 33 32 35 34 34 35
0 0 0 27 27 26 5 1 0 0 0 0 0 0 0 0 0 0 0 0 0 0 0 0 0 0 0 3 11 21 26 29 44 46 23 38 37 38 35 26 32 27 31
0 0 0 7 5 4 0 0 0 0 0 0 0 0 0 0 0 0 0 0 0 0 0 0 0 0 0 0 6 15 17 22 41 39 35 38 43 34 39 42 36 45 50
0 0 0 0 2 3 0 0 0 0 0 0 0 0 0 0 0 0 0 0 0 0 0 0 0 0 0 0 2 9 12 21 31 37 42 36 35 38 31 42 41 32 49
0 0 0 8 7 5 0 0 0 0 0 0 0 0 0 0 0 0 0 0 0 0 0 0 0 0 0 0 1 2 6 6 17 23 32 36 35 35 37 43 36 39 58
0 0 0 1 3 3 0 0 0 0 0 0 0 0 0 0 0 0 0 0 0 0 0 0 0 0 0 0 1 1 4 4 8 16 26 34 40 40 36 43 41 42 43
0 0 0 0 1 3 0 0 0 0 0 0 0 0 0 0 0 0 0 0 0 0 0 0 0 0 0 0 0 1 2 5 6 10 19 20 20 23 31 40 44 50 43
0 0 0 0 0 0 1 1 1 0 0 0 0 0 0 0 0 0 0 0 0 0 0 0 0 0 0 0 0 0 2 3 1 13 13 12 18 18 21 29 30 32 40
0 0 0 0 0 0 0 0 0 0 0 0 0 0 0 0 0 0 0 0 0 0 0 0 0 0 0 0 0 0 0 2 0 14 12 11 13 15 17 18 20 29 35
0 0 0 0 0 0 0 0 0 0 0 0 0 0 0 0 0 0 0 0 0 0 0 0 0 0 0 0 0 0 2 0 0 12 12 9 7 11 13 9 25 24 28
0 0 0 0 0 0 0 0 0 0 0 0 0 0 0 0 0 0 0 0 0 0 0 0 0 0 0 0 0 10 8 0 0 6 4 3 5 8 7 13 16 16 18
0 0 0 0 0 0 0 0 0 0 0 0 0 0 0 0 0 0 0 0 0 0 0 0 0 0 0 0 0 11 3 0 0 0 4 1 3 8 10 9 7 9 11
0 0 0 0 0 0 0 0 0 0 0 0 0 0 0 0 0 0 0 0 0 0 0 0 0 0 2 5 7 8 3 7 0 0 0 1 2 2 1 3 5 5 6
0 0 0 0 0 0 0 0 0 0 0 0 0 0 0 0 0 0 0 0 0 0 0 0 0 0 1 6 5 7 1 1 4 0 0 0 2 1 4 4 1 1 0
0 0 0 0 0 0 0 0 0 0 0 0 0 0 0 0 0 0 0 0 0 0 0 0 0 0 0 1 2 6 6 9 0 0 0 0 0 0 2 5 3 0 0
0 0 0 0 0 0 0 0 0 0 0 0 0 0 0 0 0 0 0 0 0 0 0 0 0 0 0 1 2 3 7 6 7 4 0 0 0 0 0 7 3 0 0
0 0 0 0 0 0 0 0 0 0 0 0 0 0 0 0 0 0 0 0 0 0 0 0 0 0 0 1 2 4 3 6 9 11 12 7 10 8 4 4 4 0 0
0 0 0 0 0 0 0 0 0 0 0 0 0 0 0 0 0 0 0 0 0 0 0 0 0 0 0 1 2 6 5 5 4 7 14 13 11 10 11 11 0 0 0
0 0 0 0 0 0 0 0 0 0 0 0 0 0 0 0 0 0 0 0 0 0 0 0 0 0 0 1 3 4 5 5 5 6 9 8 12 15 12 1 0 0 0
0 0 0 0 0 0 0 0 0 0 0 0 0 0 0 0 0 0 0 0 0 0 0 0 0 0 1 2 3 4 5 6 4 3 9 7 11 7 9 9 0 0 0
0 0 0 0 0 0 0 0 0 0 0 0 0 0 0 0 0 0 0 0 0 0 0 0 0 0 0 0 0 3 3 4 5 5 7 4 7 3 6 31 19 0 0
0 0 0 0 0 0 0 0 0 0 0 0 0 0 0 0 0 0 0 0 0 0 0 0 0 0 0 0 0 1 4 2 4 6 12 10 7 14 11 44 16 18 21
CIN
-0 -1 -0 -0 -5 -0 -17 -47 -0 -0 -0 -0 -0 -0 -0 -0 -0 -0 -0 -0 -0 -0 -0 -0 -0 -0 -0 -0 -0 -0 -0 -0 -0 -0 -0 -0 -0 -0 -0 -0 -0 -0 -0
-6 -18 -0 -8 -45 -29 -20 -0 -0 -0 -0 -0 -0 -0 -0 -0 -0 -0 -0 -0 -0 -0 -0 -0 -0 -0 -0 -0 -0 -0 -0 -0 -0 -0 -0 -0 -0 -0 -0 -0 -0 -0 -0
-0 -0 -9 -4 -2 -31 -0 -0 -0 -0 -0 -0 -0 -0 -0 -0 -0 -0 -0 -0 -0 -0 -0 -0 -0 -0 -0 -0 -0 -0 -0 -0 -0 -0 -0 -0 -0 -0 -0 -0 -0 -0 -0
-0 -0 -8 -0 -0 -36 -0 -0 -0 -0 -0 -0 -0 -0 -0 -0 -0 -0 -0 -0 -0 -0 -0 -0 -0 -0 -0 -0 -0 -0 -0 -0 -0 -0 -0 -0 -0 -0 -0 -0 -0 -0 -0
-0 -0 -0 -21 -10 -27 -0 -0 -0 -0 -0 -0 -0 -0 -0 -0 -0 -0 -0 -0 -0 -0 -0 -0 -0 -0 -0 -0 -0 -0 -0 -0 -0 -0 -0 -0 -0 -0 -0 -0 -0 -0 -0
-0 -0 -0 -44 -28 -21 -0 -0 -0 -0 -0 -0 -0 -0 -0 -0 -0 -0 -0 -0 -0 -0 -0 -0 -0 -0 -0 -0 -0 -0 -0 -0 -0 -0 -0 -0 -0 -0 -0 -0 -0 -0 -0
-0 -0 -0 -64 -0 -0 -0 -0 -0 -0 -0 -0 -0 -0 -0 -0 -0 -0 -0 -0 -0 -0 -0 -0 -0 -0 -0 -0 -0 -0 -0 -0 -0 -0 -0 -0 -0 -0 -0 -0 -0 -0 -0
-0 -0 -0 -0 -0 -0 -0 -0 -0 -0 -0 -0 -0 -0 -0 -0 -0 -0 -0 -0 -0 -0 -0 -0 -0 -0 -0 -0 -0 -0 -0 -0 -0 -0 -0 -0 -0 -0 -0 -0 -0 -0 -0
-0 -0 -0 -0 -0 -0 -0 -0 -0 -0 -0 -0 -0 -0 -0 -0 -0 -0 -0 -0 -0 -0 -0 -0 -0 -0 -0 -0 -0 -0 -0 -0 -0 -0 -0 -0 -0 -0 -0 -0 -0 -0 -0
-0 -0 -0 -0 -0 -0 -0 -0 -0 -0 -0 -0 -0 -0 -0 -0 -0 -0 -0 -0 -0 -0 -0 -0 -0 -0 -0 -0 -0 -0 -0 -0 -0 -0 -0 -0 -0 -0 -0 -0 -0 -0 -0
-0 -0 -0 -0 -0 -0 -0 -0 -0 -0 -0 -0 -0 -0 -0 -0 -0 -0 -0 -0 -0 -0 -0 -0 -0 -0 -0 -0 -0 -0 -0 -0 -0 -0 -0 -0 -0 -0 -0 -0 -0 -0 -0
-0 -0 -0 -0 -0 -0 -0 -0 -0 -0 -0 -0 -0 -0 -0 -0 -0 -0 -0 -0 -0 -0 -0 -0 -0 -0 -0 -0 -0 -0 -0 -0 -0 -0 -0 -0 -0 -0 -0 -0 -0 -0 -0
-0 -0 -0 -0 -0 -0 -0 -0 -0 -0 -0 -0 -0 -0 -0 -0 -0 -0 -0 -0 -0 -0 -0 -0 -0 -0 -0 -0 -0 -0 -0 -0 -0 -0 -0 -0 -0 -0 -0 -0 -0 -0 -0
-0 -0 -0 -0 -0 -0 -0 -0 -0 -0 -0 -0 -0 -0 -0 -0 -0 -0 -0 -0 -0 -0 -0 -0 -0 -0 -0 -0 -0 -0 -0 -0 -0 -0 -0 -0 -0 -0 -0 -0 -0 -0 -0
-0 -0 -0 -0 -0 -0 -0 -0 -0 -0 -0 -0 -0 -0 -0 -0 -0 -0 -0 -0 -0 -0 -0 -0 -0 -0 -0 -0 -0 -0 -0 -0 -0 -0 -0 -0 -0 -0 -0 -0 -0 -0 -0
-0 -0 -0 -0 -0 -0 -0 -0 -0 -0 -0 -0 -0 -0 -0 -0 -0 -0 -0 -0 -0 -0 -0 -0 -0 -0 -0 -0 -0 -0 -0 -0 -0 -0 -0 -0 -0 -0 -0 -0 -0 -0 -0
-0 -0 -0 -0 -0 -0 -0 -0 -0 -0 -0 -0 -0 -0 -0 -0 -0 -0 -0 -0 -0 -0 -0 -0 -0 -0 -0 -0 -0 -0 -1 -0 -2 -0 -0 -0 -0 -0 -0 -0 -0 -0 -0
-0 -0 -0 -0 -0 -0 -0 -0 -0 -0 -0 -0 -0 -0 -0 -0 -0 -0 -0 -0 -0 -0 -0 -0 -0 -0 -0 -0 -0 -0 -0 -0 -0 -0 -0 -0 -0 -0 -0 -0 -0 -0 -0
-0 -0 -0 -0 -0 -0 -0 -0 -0 -0 -0 -0 -0 -0 -0 -0 -0 -0 -0 -0 -0 -0 -0 -0 -0 -0 -0 -0 -0 -0 -0 -0 -0 -0 -0 -0 -0 -0 -0 -0 -0 -0 -0
-0 -0 -0 -0 -0 -0 -0 -0 -0 -0 -0 -0 -0 -0 -0 -0 -0 -0 -0 -0 -0 -0 -0 -0 -0 -0 -0 -0 -0 -0 -0 -0 -0 -0 -0 -0 -0 -0 -0 -1 -1 -0 -0
-0 -0 -0 -0 -0 -0 -0 -0 -0 -0 -0 -0 -0 -0 -0 -0 -0 -0 -0 -0 -0 -0 -0 -0 -0 -0 -0 -0 -0 -0 -0 -0 -0 -0 -0 -0 -0 -2 -0 -7 -0 -2 -0
-0 -0 -0 -0 -0 -0 -0 -0 -0 -0 -0 -0 -0 -0 -0 -0 -0 -0 -0 -0 -0 -0 -0 -0 -0 -0 -0 -0 -0 -0 -0 -0 -0 -0 -0 -0 -0 -0 -0 -0 -0 -0 -0
-0 -0 -0 -0 -0 -0 -0 -0 -0 -0 -0 -0 -0 -0 -0 -0 -0 -0 -0 -0 -0 -0 -0 -0 -0 -0 -0 -0 -0 -0 -0 -0 -0 -0 -0 -0 -0 -0 -0 -0 -0 -0 -0
-0 -0 -0 -0 -0 -0 -0 -0 -0 -0 -0 -0 -0 -0 -0 -0 -0 -0 -0 -0 -0 -0 -0 -0 -0 -0 -0 -0 -0 -0 -0 -0 -0 -0 -0 -0 -0 -0 -0 -0 -0 -0 -0
-0 -0 -0 -0 -0 -0 -0 -0 -0 -0 -0 -0 -0 -0 -0 -0 -0 -0 -0 -0 -0 -0 -0 -0 -0 -0 -0 -0 -0 -0 -0 -0 -0 -0 -0 -0 -0 -0 -0 -0 -0 -0 -0
-0 -0 -0 -0 -0 -0 -0 -0 -0 -0 -0 -0 -0 -0 -0 -0 -0 -0 -0 -0 -0 -0 -0 -0 -0 -0 -0 -0 -0 -0 -0 -0 -0 -0 -0 -0 -0 -0 -0 -0 -0 -0 -0
Wind_Speed
4 4 4 6 6 6 7 8 9 8 10 11 10 11 11 11 11 9 9 20 19 20 20 21 20 19 18 17 17 17 19 18 18 18 18 18 18 17 17 17 18 18 17
4 5 5 6 6 6 7 8 9 8 10 10 10 11 11 10 12 12 8 12 19 20 19 19 19 18 18 17 17 17 18 17 16 15 17 17 17 18 18 18 18 19 19
6 6 6 7 8 8 11 9 10 9 10 10 12 11 10 10 10 9 7 9 13 18 19 19 19 18 18 19 18 18 17 16 16 18 17 17 17 18 19 19 19 19 19
6 5 5 5 8 9 9 9 9 9 10 9 9 9 9 8 8 8 7 5 6 8 15 17 18 18 19 19 19 18 18 18 17 16 17 18 18 18 19 19 20 20 20
5 4 5 6 8 8 7 8 8 8 9 9 9 8 7 7 7 6 8 7 8 9 7 12 14 17 18 19 19 19 18 18 17 17 17 17 18 18 18 19 19 20 19
6 5 6 8 8 8 9 9 10 9 9 9 9 8 6 5 5 4 6 6 7 7 8 8 6 10 14 15 18 19 18 18 18 17 17 18 18 18 19 19 20 19 20
6 6 7 9 9 9 10 12 12 13 10 10 9 7 7 5 5 4 3 5 6 7 7 7 7 7 6 11 15 18 18 18 18 17 17 18 17 19 19 20 19 19 18
6 5 7 8 9 9 12 12 13 11 10 9 6 5 5 5 4 3 3 4 4 5 6 8 8 9 8 7 11 17 18 18 18 18 17 17 19 19 19 19 19 18 19
6 6 5 6 8 9 10 12 12 14 9 8 6 4 3 2 6 5 4 4 3 4 4 6 7 8 9 7 9 12 16 17 18 17 18 19 19 20 20 19 19 19 19
6 6 7 8 9 8 10 10 9 9 9 8 6 3 3 3 2 5 4 4 3 3 4 4 5 7 8 7 10 15 15 16 17 17 17 19 19 19 19 19 20 19 20
6 6 6 6 7 6 9 10 11 9 7 5 6 4 2 1 1 3 2 5 3 2 3 3 5 6 7 8 8 12 14 15 16 16 16 18 19 19 19 20 19 19 19
5 5 6 6 5 5 7 7 9 9 7 5 4 3 4 4 3 2 1 2 1 5 3 3 5 5 6 6 10 9 13 14 15 14 16 17 19 19 19 20 21 20 22
6 6 7 6 6 5 6 6 7 7 7 6 5 2 1 2 2 1 2 3 2 4 3 3 4 5 5 6 8 8 12 12 14 13 14 17 17 18 18 19 20 21 22
7 8 7 7 7 7 7 7 5 5 6 5 6 4 4 3 3 2 1 2 3 3 4 5 4 5 5 6 5 10 11 12 13 12 15 15 16 17 17 18 19 20 21
8 9 9 9 9 8 8 8 6 8 9 7 7 6 5 5 4 4 3 2 4 2 3 5 2 5 4 4 7 6 7 10 12 11 12 13 14 15 16 18 20 20 20
10 11 10 10 10 9 9 8 8 8 9 7 6 7 6 5 5 4 4 3 3 3 3 3 4 4 4 3 5 3 5 8 12 11 10 12 13 15 16 17 18 18 19
12 11 11 11 11 10 9 8 8 8 9 9 8 7 7 6 5 5 4 3 3 3 4 4 3 4 4 4 5 4 2 4 10 10 9 10 12 13 15 17 17 18 19
12 12 11 11 11 11 9 10 9 9 9 10 9 8 8 6 6 5 4 5 5 4 2 5 3 3 4 5 3 3 3 4 5 9 6 8 9 11 12 14 17 17 18
13 12 11 11 11 11 11 10 9 9 8 9 8 7 7 7 6 4 4 4 4 4 3 2 4 2 3 3 2 2 3 2 4 8 9 7 6 7 10 11 15 17 18
13 13 11 11 11 11 11 11 10 10 9 8 7 7 6 6 6 5 4 4 3 3 3 2 2 3 3 2 1 4 3 1 2 4 4 2 4 5 6 8 14 16 17
13 13 12 11 11 11 9 12 11 10 10 9 8 8 6 7 10 9 1 4 3 2 2 2 2 2 2 2 3 3 3 4 6 5 4 4 2 4 4 9 11 14 15
14 14 13 13 12 9 12 9 11 10 10 10 9 8 8 8 7 6 6 11 9 1 3 1 1 1 3 3 2 4 2 3 1 3 6 2 4 3 3 6 9 10 12
15 14 14 13 13 11 14 11 8 10 10 9 9 9 8 6 8 9 7 7 6 7 8 5 2 3 2 3 4 2 2 2 2 3 5 3 6 5 4 7 8 9 8
15 14 14 14 13 10 15 13 11 10 9 10 9 9 8 10 7 7 7 6 6 6 4 1 2 3 2 3 1 2 1 4 2 1 6 2 4 4 5 2 7 5 6
14 14 14 14 14 12 16 15 14 11 10 10 9 9 9 9 11 5 6 6 6 5 6 4 6 5 4 2 5 0 1 1 1 0 2 2 3 4 3 4 4 5 2
15 13 14 14 14 14 16 17 16 9 11 9 9 10 4 6 15 10 7 6 6 5 5 7 8 8 9 7 5 5 2 1 1 2 0 2 3 3 2 3 2 4 4
Wind_Direction
124 146 119 110 99 120 108 104 99 99 98 94 87 85 83 85 91 92 84 62 67 62 56 49 44 39 44 43 43 41 46 37 36 35 30 28 26 24 20 18 15 12 9
132 127 102 103 117 120 119 114 111 120 94 94 90 89 84 83 84 88 106 82 68 64 56 49 44 38 39 41 41 40 46 39 37 26 36 28 23 20 19 18 13 13 10
130 126 127 145 147 121 113 125 122 112 111 101 98 83 85 95 101 105 101 116 105 72 58 49 45 40 37 34 33 34 35 42 33 23 32 24 22 18 19 15 12 10 12
135 149 147 138 129 139 147 133 133 125 120 113 107 105 99 94 89 90 84 72 82 103 81 56 47 41 36 33 27 26 26 33 30 26 29 21 21 21 17 15 13 10 5
136 150 143 130 159 141 142 137 130 130 123 120 113 112 110 104 99 85 88 85 69 49 54 99 80 52 38 31 27 22 20 24 26 27 24 22 23 19 18 14 11 7 4
138 158 142 150 161 147 145 139 129 131 125 120 109 84 97 106 109 116 97 88 81 70 53 33 35 86 61 38 27 23 17 19 20 24 21 22 21 20 16 13 11 7 9
140 159 150 162 165 160 148 145 137 138 122 125 126 127 105 116 98 91 98 98 87 76 55 43 31 19 46 66 37 25 19 17 17 21 18 28 20 21 16 14 12 11 6
137 157 160 168 173 149 147 145 146 143 143 164 146 140 151 147 128 114 114 104 64 67 62 53 39 29 16 34 42 38 23 17 14 19 22 23 24 21 16 14 13 12 18
133 131 150 159 161 159 156 157 164 154 159 174 197 310 185 99 152 147 140 102 110 74 61 70 41 27 22 37 28 36 26 19 12 16 23 28 23 20 16 16 15 15 24
127 138 145 155 168 170 161 169 171 179 164 173 177 216 321 29 274 166 157 144 141 125 54 42 42 41 25 26 54 45 27 21 14 16 25 27 23 20 18 18 16 14 26
127 133 145 148 168 184 173 176 175 193 188 188 204 174 210 201 310 298 152 151 173 136 85 62 22 30 34 36 35 49 28 23 17 14 29 27 23 21 20 19 18 18 29
138 129 137 144 144 158 172 181 190 193 201 211 212 226 270 302 313 252 253 151 166 138 109 56 39 31 32 42 64 56 39 24 20 11 29 27 22 22 22 19 20 16 15
155 147 140 140 139 145 145 164 187 179 187 201 207 199 278 357 318 318 275 101 169 130 155 92 44 38 38 34 56 358 58 29 22 24 31 29 25 22 21 22 21 19 15
151 149 135 128 128 135 132 131 138 140 136 140 145 120 113 93 76 52 3 168 154 152 132 27 89 35 46 40 60 277 93 40 27 30 37 28 27 26 24 22 23 21 17
142 146 139 134 128 124 123 126 123 120 118 120 114 118 111 96 86 76 66 12 329 205 102 124 60 76 37 53 21 29 45 61 46 39 49 34 31 30 27 25 21 20 19
148 148 147 140 133 128 122 118 119 121 121 120 118 116 108 106 100 87 84 68 36 347 120 22 93 53 33 42 72 18 66 151 80 52 48 45 38 30 29 28 25 22 19
157 155 155 149 140 133 131 127 126 133 126 120 118 117 113 118 104 97 87 76 65 20 99 118 81 88 86 26 41 43 48 36 105 64 55 55 43 37 31 29 26 23 20
163 156 159 153 144 142 142 142 147 139 137 132 129 132 124 116 108 103 96 82 74 49 76 114 89 120 56 63 12 21 38 57 51 89 76 61 43 35 35 29 30 24 22
164 160 164 160 154 151 149 152 145 143 140 136 137 136 130 131 124 114 111 113 102 83 76 83 113 119 91 12 25 101 52 83 72 157 160 130 82 58 45 38 33 27 22
164 164 170 164 158 159 155 154 150 146 143 139 136 134 137 134 134 136 122 108 109 106 101 111 99 111 51 82 340 3 58 71 33 9 134 96 201 157 88 37 43 30 23
168 168 169 168 166 168 165 162 156 156 153 149 145 140 128 74 48 39 19 130 140 123 126 124 108 145 95 91 40 27 358 325 123 357 322 76 171 168 95 74 31 37 25
170 171 174 175 173 180 132 159 164 163 164 162 159 145 129 134 113 83 60 50 26 65 107 30 91 69 92 87 57 57 8 5 13 53 324 35 345 30 48 43 44 31 24
171 176 177 179 181 178 152 164 179 167 172 172 168 161 161 128 158 138 118 113 88 62 30 350 50 54 117 67 86 42 25 355 299 25 332 320 16 9 349 117 75 23 5
177 178 180 184 184 176 161 168 182 173 180 179 180 177 173 164 162 161 170 162 154 150 140 108 54 98 101 121 69 52 342 317 86 336 10 309 357 334 311 62 119 40 356
179 181 181 186 188 171 164 168 180 179 185 183 188 187 183 177 141 198 183 188 175 141 112 60 61 77 94 43 334 231 288 315 281 225 29 311 321 323 306 328 328 118 126
180 182 181 191 189 183 169 171 190 188 187 185 189 187 209 203 151 184 214 196 200 173 183 177 176 185 197 170 222 260 195 263 234 243 311 338 312 339 294 207 328 7 348